Погода в Верхних Белозерках

Россия / Самарская область     53°43′42″N   49°10′13″E
темп.,
°C
ветер,
м/с
пор.,
м/с
влажн.,
%
обл.,
%
осадки,
мм/ч
давл.,
гПа
погр.,
м
24 января, пн
пн2401:00−11вюв2289100 0.0 103427
04:00−14в1192100 0.0 103510
07:00−14всв2295100 0.0 103524
10:00−12в2493100 0.0 103592
13:00−9св1287100 0.0 1035151
16:00−10св229470 0.0 103523
19:00−15в229679 0.0 103616
22:00−18юв119937 0.0 10359
25 января, вт
вт2501:00−19юв1110014 0.0 10359
04:00−21ююв1110034 0.0 10349
07:00−22юв1110042 0.0 10339
10:00−21ююв1110028 0.0 103213
13:00−13ю249130 0.0 1030140
16:00−13ю239486 0.0 102850
19:00−16юв229798 0.0 102732
22:00−18юв229971 0.0 102625
26 января, ср
ср2601:00−14ююв369691 0.0 102493
04:00−15ююв239799 0.0 102345
07:00−14ююв259799 0.1 102290
10:00−12ю2596100 0.1 1021133
13:00−8ююз3593100 0.2 1020254
16:00−7ююз2495100 0.5 1019271
19:00−8ююз3596100 0.1 1019109
22:00−9ююз3695100 0.2 1020135
27 января, чт
чт2701:00−11ююз359664 0.0 102177
04:00−16ююз229858 0.0 102125
07:00−16ююз349853 0.0 102250
10:00−16ю349836 0.0 102362
13:00−10ююз479433 0.0 1022189
16:00−11ю35957 0.0 102276
19:00−15ю339876 0.0 102235
22:00−17ю33100100 0.0 102231
28 января, пт
пт2801:00−16ю2298100 0.0 102120
04:00−16ююв1198100 0.0 10219
07:00−14всв0097100 0.0 102011
10:00−13ссв1196100 0.0 102034
13:00−8ссв1292100 0.0 1019114
16:00−7с2293100 0.0 101887
19:00−10св229671 0.0 101721
22:00−11ссз119881 0.1 101612